This is the latest recevied weather packets stored in our database for station/object DO7ZT-13. If no packets are shown the sender has not sent any weather packets the latest 10 day(s).
| Time | Temp. | Humidity | Pressure | Rain* | Wind** | Luminosity | Snow |
|---|---|---|---|---|---|---|---|
| 1777720526 | 22.22° C | 29% | 1022.6 hPa | 0 mm | 2.24 m/s, 174° | - | - |
| 1777720213 | 22.22° C | 30% | 1022.6 hPa | 0 mm | 2.24 m/s, 181° | - | - |
| 1777719925 | 22.22° C | 32% | 1022.6 hPa | 0 mm | 1.34 m/s, 114° | - | - |
| 1777719618 | 22.22° C | 27% | 1022.7 hPa | 0 mm | 0.89 m/s, 144° | - | - |
| 1777719325 | 22.22° C | 29% | 1022.7 hPa | 0 mm | 0.89 m/s, 141° | - | - |
| 1777719013 | 22.22° C | 26% | 1022.7 hPa | 0 mm | 1.34 m/s, 160° | - | - |
| 1777718726 | 22.22° C | 27% | 1023 hPa | 0 mm | 1.34 m/s, 169° | - | - |
| 1777718413 | 22.22° C | 25% | 1023 hPa | 0 mm | 1.79 m/s, 178° | - | - |
| 1777718126 | 22.22° C | 27% | 1023 hPa | 0 mm | 1.79 m/s, 175° | - | - |
| 1777717813 | 22.22° C | 25% | 1023.1 hPa | 0 mm | 0.89 m/s, 196° | - | - |
| 1777717538 | 22.22° C | 25% | 1023.1 hPa | 0 mm | 0.89 m/s, 261° | - | - |
| 1777717226 | 22.22° C | 25% | 1023.1 hPa | 0 mm | 0.89 m/s, 256° | - | - |
| 1777716913 | 22.22° C | 26% | 1023.4 hPa | 0 mm | 0.89 m/s, 240° | - | - |
| 1777716626 | 22.22° C | 26% | 1023.4 hPa | 0 mm | 0.45 m/s, 197° | - | - |
| 1777716313 | 21.11° C | 27% | 1023.4 hPa | 0 mm | 0.89 m/s, 231° | - | - |
| 1777716026 | 21.11° C | 28% | 1023.6 hPa | 0 mm | 2.24 m/s, 192° | - | - |
| 1777715713 | 22.22° C | 27% | 1023.6 hPa | 0 mm | 1.34 m/s, 165° | - | - |
| 1777715426 | 22.22° C | 28% | 1023.6 hPa | 0 mm | 0.89 m/s, 211° | - | - |
| 1777715113 | 21.11° C | 28% | 1023.6 hPa | 0 mm | 0.89 m/s, 188° | - | - |
| 1777714825 | 21.11° C | 29% | 1023.6 hPa | 0 mm | 1.79 m/s, 150° | - | - |
| 1777714513 | 21.11° C | 29% | 1023.6 hPa | 0 mm | 1.34 m/s, 159° | - | - |
| 1777714225 | 21.11° C | 28% | 1023.7 hPa | 0 mm | 1.34 m/s, 166° | - | - |
| 1777713913 | 21.11° C | 29% | 1023.7 hPa | 0 mm | 0.89 m/s, 146° | - | - |
| 1777713626 | 21.11° C | 27% | 1023.7 hPa | 0 mm | 0.89 m/s, 251° | - | - |
| 1777713313 | 21.11° C | 28% | 1023.8 hPa | 0 mm | 0.89 m/s, 174° | - | - |
* Rain latest hour (hover to see other rain measurements)
** Current wind speed in m/s (hover to see current wind gust speed)